Rice Lake Regional-Carl's, WI

8:17 AM CST on December 22, 2014 (GMT -0600)
Rice Lake Regional-Carl's | Change Station
CLOSE
Current Station
Airport
Location: Rice Lake,
Elevation: 1106 ft
Nearby Weather Stations

Elev 1106 ft 45.42 °N, 91.78 °W | Updated 22 minutes ago

Overcast
Overcast
34 °F
Feels Like 25 °F
N
14
Wind Variable Wind from SE

Today
High -- | Low -- °F
--% Chance of Precip.
Yesterday
High -- | Low -- °F
Precip. -- in
7:44 AM 4:27 PM
New Moon, 0% visible
Pressure 29.75 in
Visibility 1.5 miles
Clouds Overcast 300 ft
Windchill 25 °F
Dew Point 33 °F
Humidity 97%
Rainfall 0.09 in
Snow Depth Not available.
UV 0 out of 12
Pollen .10 out of 12
Air Quality Not available.
Flu Activity Not available.
METAR KRPD 221355Z AUTO 13012KT 1 1/2SM BR OVC003 01/01 A2975 RMK AO2 T00110007

More Conditions Fewer Conditions

Pressure 29.75 in
Visibility 1.5 miles
Clouds Overcast 300 ft
Windchill 25 °F
Dew Point 33 °F
Humidity 97%
Rainfall 0.09 in
Snow Depth Not available.
UV 0 out of 12
Pollen .10 out of 12
Air Quality Not available.
Flu Activity Not available.
METAR KRPD 221355Z AUTO 13012KT 1 1/2SM BR OVC003 01/01 A2975 RMK AO2 T00110007

More Conditions Fewer Conditions

10-Day Weather Forecast

Almanac

Astronomy

Dec. 22, 2014 Rise Set
Actual Time
Civil Twilight
Nautical Twilight
Astronomical Twilight
Moon
Length of Visible Light
Length of Day
Tomorrow will be .
, % of the Moon is Illuminated

Today's Extremes

State Highs State Lows

Community

WunderPhotos

Upload Photos

1,779,602 photos uploaded!

WunderBlogs® & News

Nearby

Air Quality

  Air Quality AQ Index Pollutant
Not available.

Snow Depth

Station Depth Elevation

Earthquake Activity

City Distance Mag. Time & Date
Minimum magnitude displayed is 2.5.

Coastal Water Temperatures

Place Temperature

Nearby Weather Stations